Weather in Kosinskoye

Russia / Vladimir Oblast     56°30′38″N   39°34′16″E
temp.,
°C
wind,
m/s
gust,
m/s
humid.,
%
clouds,
%
prec.,
mm/h
press.,
hPa
HPBL,
m
7 march, sun
sun700:00−14sw44920 0.0 101162
03:00−13ssw510932 0.0 1008184
06:00−10ssw71590100 0.0 1003550
09:00−7ssw91593100 0.9 998903
12:00−5sw91492100 0.6 9941021
15:00−2sw71294100 1.7 992890
18:00−6nw1183100 0.8 99221
21:00−9wnw1170100 0.8 99221
8 march, mon
mon800:00−10wsw3690100 0.0 993120
03:00−9w4988100 0.1 994216
06:00−10sw499598 0.1 994295
09:00−8wsw479499 0.7 995595
12:00−7nnw4589100 0.4 997623
15:00−7nnw588498 0.8 1000849
18:00−9nnw5119086 0.1 1003342
21:00−13nw5109489 0.1 1006234
9 march, tue
tue900:00−14nw489779 0.1 1008191
03:00−16nnw489787 0.1 1010162
06:00−19nnw4799100 0.1 1013139
09:00−19nnw479798 0.1 1015252
12:00−16nnw469297 0.0 1016429
15:00−14nnw468999 0.1 1017636
18:00−17nnw4895100 0.1 1018240
21:00−23nnw479993 0.1 1021107
10 march, wed
wed1000:00−25nnw3410074 0.0 102269
03:00−26nnw349970 0.0 102453
06:00−27nnw34990 0.0 102543
09:00−25nnw35960 0.0 1026159
12:00−19nnw34850 0.0 1027342
15:00−16nw34820 0.0 1027499
18:00−19wnw239024 0.0 102720
21:00−21wnw349412 0.0 102834
11 march, thu
thu1100:00−22wnw348612 0.0 102826
03:00−22w33846 0.0 102921
06:00−22w238043 0.0 102820
09:00−18sw238250 0.0 102892
12:00−12ssw34750 0.0 1027307
15:00−9s47760 0.0 1025558
18:00−11s499455 0.0 1023241
21:00−13s5129578 0.1 1023285